Location: Mexico
(19.4000°N, 99.1500°W)
Time: 02:04:00
(UTC-06:00)

ISS - Pass Details

Date: 21 November 2017
Orbit: 402 x 407 km, 51.6° (Epoch: 21 November)

Event Time Altitude Azimuth Distance (km) Brightness Sun altitude
Exits shadow 05:18:39 32° 27° (NNE) 717 -2.5 -20.9°
Maximum altitude 05:19:11 34° 49° (NE) 680 -2.5 -20.8°
Drops below altitude 10° 05:22:09 10° 116° (ESE) 1,442 0.1 -20.1°
Sets 05:24:20 0° 126° (SE) 2,299 1.3 -19.7°
